AFR248 LFPG-RPLL

Flight info

Callsign AFR248
Flight time N/A
Altitude 35000
Route LANVI DCT LUPEN/N0489F370 UM164 UTABA DCT INPUL DCT SASAL DCT TEGRI DCT UDROS UM859 KARDE/N0492F390 UN644 ROLIN DCT TETRO DCT BARAD M747 LUSAL N199 RASAM L88 METKA B476 DARVA/K0891F390 T898 OGOLI N193 SR L163 TISIB L141 KAMUD/K0895S1250 W186 SADAN Y1 OMBON W245 OVRAL B330 KWE W181 DUDIT A599 POU B330 TAMOT/N0481F410 B330 BIGEX DCT NOMAN A461 AVMUP W16 TADEL TADEL5R
Aircraft A359/H-SDE2E3GHIJ3J4J5LM1ORWXY/LB1D1

Departure

Time 2026-05-06 18:29
Airport Charles de Gaulle International Airport (LFPG)

Arrival

Time N/A
Airport Ninoy Aquino International Airport (RPLL)
Time Latitude Longitude Altitude Speed Heading
2026-05-06 17:58 49.00153 2.57820 365 ft 0 kts 356°
2026-05-06 18:18 49.00150 2.57820 360 ft 0 kts 356°
2026-05-06 18:18 49.00148 2.57820 360 ft 0 kts 357°
2026-05-06 18:18 49.00143 2.57821 366 ft 2 kts 358°
2026-05-06 18:19 49.00127 2.57821 360 ft 2 kts 359°
2026-05-06 18:19 49.00110 2.57821 360 ft 2 kts
2026-05-06 18:19 49.00094 2.57819 363 ft 2 kts
2026-05-06 18:19 49.00078 2.57814 360 ft 2 kts 23°
2026-05-06 18:20 49.00065 2.57798 369 ft 2 kts 79°
2026-05-06 18:20 49.00064 2.57790 369 ft 0 kts 89°
2026-05-06 18:22 49.00065 2.57811 365 ft 7 kts 87°
2026-05-06 18:23 49.00071 2.57907 362 ft 10 kts 86°
2026-05-06 18:23 49.00076 2.58016 368 ft 11 kts 85°
2026-05-06 18:23 49.00084 2.58137 365 ft 12 kts 84°
2026-05-06 18:23 49.00085 2.58262 366 ft 12 kts 102°
2026-05-06 18:24 49.00032 2.58343 368 ft 11 kts 131°
2026-05-06 18:24 49.00020 2.58457 366 ft 11 kts 88°
2026-05-06 18:24 49.00028 2.58601 360 ft 16 kts 85°
2026-05-06 18:24 49.00035 2.58762 363 ft 17 kts 86°
2026-05-06 18:25 49.00036 2.58784 360 ft 17 kts 86°
2026-05-06 18:25 49.00045 2.58966 360 ft 17 kts 85°
2026-05-06 18:26 49.00056 2.59152 363 ft 18 kts 84°
2026-05-06 18:26 49.00068 2.59345 366 ft 19 kts 84°
2026-05-06 18:26 49.00079 2.59545 360 ft 19 kts 86°
2026-05-06 18:26 49.00088 2.59750 366 ft 20 kts 86°
2026-05-06 18:27 49.00098 2.59960 363 ft 20 kts 86°
2026-05-06 18:27 49.00109 2.60153 360 ft 14 kts 85°
2026-05-06 18:27 49.00077 2.60225 367 ft 8 kts 144°
2026-05-06 18:27 49.00023 2.60244 362 ft 8 kts 178°
2026-05-06 18:28 48.99959 2.60246 362 ft 10 kts 185°
2026-05-06 18:28 48.99892 2.60207 368 ft 11 kts 211°
2026-05-06 18:28 48.99835 2.60128 368 ft 11 kts 244°
2026-05-06 18:28 48.99817 2.59929 365 ft 39 kts 264°
2026-05-06 18:29 48.99779 2.59190 361 ft 99 kts 265°
2026-05-06 18:29 48.99706 2.57883 369 ft 147 kts 268°
2026-05-06 18:29 48.99612 2.56208 683 ft 160 kts 267°
2026-05-06 18:29 48.99490 2.54565 1361 ft 156 kts 270°
2026-05-06 18:30 48.99407 2.52903 1895 ft 159 kts 269°
2026-05-06 18:30 48.99335 2.51321 2380 ft 160 kts 270°
2026-05-06 18:31 48.99329 2.51176 2416 ft 160 kts 270°
2026-05-06 18:31 48.99246 2.49470 2897 ft 164 kts 270°
2026-05-06 18:31 48.99157 2.47735 3358 ft 165 kts 270°
2026-05-06 18:31 48.99064 2.45936 3648 ft 178 kts 269°
2026-05-06 18:32 48.98967 2.44006 3884 ft 193 kts 268°
2026-05-06 18:32 48.98848 2.41884 4104 ft 210 kts 268°
2026-05-06 18:32 48.98706 2.39561 4306 ft 230 kts 269°
2026-05-06 18:32 48.98578 2.37037 4542 ft 249 kts 267°
2026-05-06 18:33 48.98445 2.34551 4961 ft 258 kts 265°
2026-05-06 18:33 48.98280 2.31811 5550 ft 261 kts 266°
2026-05-06 18:33 48.98105 2.29041 6192 ft 265 kts 266°
2026-05-06 18:33 48.97947 2.26217 6811 ft 270 kts 266°
2026-05-06 18:34 48.97512 2.23435 7479 ft 274 kts 245°
2026-05-06 18:34 48.96354 2.21188 8156 ft 278 kts 219°
2026-05-06 18:34 48.95357 2.20300 8542 ft 281 kts 202°
2026-05-06 18:34 48.93421 2.19884 9198 ft 286 kts 177°
2026-05-06 18:35 48.91411 2.20176 9775 ft 293 kts 169°
2026-05-06 18:35 48.89513 2.21265 10363 ft 298 kts 147°
2026-05-06 18:35 48.88016 2.23549 10555 ft 316 kts 119°
2026-05-06 18:35 48.87343 2.26759 10863 ft 327 kts 92°
2026-05-06 18:36 48.87634 2.30225 11213 ft 337 kts 71°
2026-05-06 18:36 48.88466 2.33605 11627 ft 348 kts 68°
2026-05-06 18:36 48.89079 2.37225 12008 ft 361 kts 81°
2026-05-06 18:36 48.89260 2.41044 12333 ft 374 kts 86°
2026-05-06 18:37 48.89383 2.45048 12684 ft 385 kts 86°
2026-05-06 18:37 48.89472 2.47797 13176 ft 384 kts 86°
2026-05-06 18:37 48.89720 2.53169 14037 ft 387 kts 85°
2026-05-06 18:37 48.89923 2.57226 14621 ft 388 kts 85°
2026-05-06 18:38 48.90117 2.61345 15078 ft 393 kts 85°
2026-05-06 18:38 48.90304 2.65488 15608 ft 396 kts 86°
2026-05-06 18:38 48.90488 2.69668 16181 ft 398 kts 86°
2026-05-06 18:38 48.90619 2.73842 16654 ft 402 kts 90°
2026-05-06 18:39 48.90326 2.78071 17218 ft 404 kts 100°
2026-05-06 18:39 48.90080 2.80040 17500 ft 405 kts 102°
2026-05-06 18:40 48.89280 2.85169 18114 ft 410 kts 105°
2026-05-06 18:41 48.88571 2.89094 18585 ft 413 kts 106°
2026-05-06 18:41 48.87773 2.93301 19117 ft 415 kts 107°
2026-05-06 18:41 48.86966 2.97510 19619 ft 418 kts 107°
2026-05-06 18:42 48.86154 3.01774 19996 ft 420 kts 107°
2026-05-06 18:42 48.85348 3.06053 20329 ft 422 kts 106°
2026-05-06 18:42 48.84546 3.10351 20627 ft 426 kts 106°
2026-05-06 18:42 48.83740 3.14692 20933 ft 428 kts 106°
2026-05-06 18:43 48.82943 3.18992 21263 ft 430 kts 106°
2026-05-06 18:43 48.82132 3.23363 21577 ft 431 kts 106°
2026-05-06 18:43 48.81317 3.27748 21923 ft 433 kts 106°
2026-05-06 18:43 48.80493 3.32162 22254 ft 435 kts 106°
2026-05-06 18:44 48.79666 3.36587 22586 ft 437 kts 106°
2026-05-06 18:44 48.78833 3.41029 22924 ft 439 kts 106°
2026-05-06 18:44 48.77993 3.45495 23250 ft 441 kts 106°
2026-05-06 18:44 48.77150 3.49976 23568 ft 443 kts 106°
2026-05-06 18:45 48.76309 3.54448 23999 ft 441 kts 106°
2026-05-06 18:45 48.75463 3.58924 24269 ft 443 kts 106°
2026-05-06 18:45 48.74623 3.63350 24564 ft 444 kts 106°
2026-05-06 18:45 48.74045 3.66387 24781 ft 445 kts 106°
2026-05-06 18:46 48.72905 3.72364 25190 ft 446 kts 107°
2026-05-06 18:46 48.72042 3.76880 25488 ft 448 kts 107°
2026-05-06 18:46 48.71174 3.81413 25826 ft 448 kts 107°
2026-05-06 18:46 48.70303 3.85955 26144 ft 450 kts 107°
2026-05-06 18:47 48.69428 3.90505 26464 ft 451 kts 107°
2026-05-06 18:47 48.68549 3.95066 26778 ft 453 kts 107°
2026-05-06 18:47 48.67664 3.99645 27102 ft 454 kts 107°
2026-05-06 18:47 48.66785 4.04184 27422 ft 456 kts 107°
2026-05-06 18:48 48.65894 4.08777 27739 ft 457 kts 107°
2026-05-06 18:48 48.64994 4.13407 28048 ft 459 kts 107°
2026-05-06 18:48 48.64090 4.18049 28369 ft 461 kts 107°
2026-05-06 18:48 48.63180 4.22690 28701 ft 462 kts 107°
2026-05-06 18:49 48.62263 4.27361 29010 ft 464 kts 107°
2026-05-06 18:49 48.61654 4.30457 29201 ft 465 kts 107°
2026-05-06 18:49 48.60730 4.35151 29450 ft 468 kts 107°
2026-05-06 18:49 48.59796 4.39882 29600 ft 472 kts 107°
2026-05-06 18:50 48.58546 4.46195 29989 ft 474 kts 107°
2026-05-06 18:50 48.57599 4.50970 30228 ft 476 kts 107°
2026-05-06 18:50 48.56644 4.55772 30443 ft 478 kts 107°
2026-05-06 18:50 48.55686 4.60576 30684 ft 479 kts 107°
2026-05-06 18:51 48.55049 4.63764 30876 ft 479 kts 108°
2026-05-06 18:51 48.54084 4.68584 31063 ft 481 kts 108°
2026-05-06 18:51 48.53111 4.73427 31251 ft 483 kts 107°
2026-05-06 18:51 48.52137 4.78272 31534 ft 483 kts 108°
2026-05-06 18:52 48.51161 4.83111 31859 ft 481 kts 108°
2026-05-06 18:52 48.50186 4.87930 32089 ft 482 kts 108°
2026-05-06 18:52 48.49235 4.92624 32323 ft 483 kts 108°
2026-05-06 18:52 48.48252 4.97458 32549 ft 483 kts 108°
2026-05-06 18:53 48.47268 5.02290 32804 ft 483 kts 108°
2026-05-06 18:53 48.46280 5.07132 33053 ft 483 kts 108°
2026-05-06 18:53 48.45300 5.11916 33268 ft 484 kts 108°
2026-05-06 18:53 48.44309 5.16746 33501 ft 484 kts 108°
2026-05-06 18:54 48.43315 5.21578 33805 ft 482 kts 108°
2026-05-06 18:54 48.42323 5.26389 34072 ft 481 kts 108°
2026-05-06 18:54 48.41328 5.31205 34217 ft 482 kts 108°
2026-05-06 18:54 48.40329 5.36026 34357 ft 483 kts 108°
2026-05-06 18:55 48.39326 5.40853 34525 ft 484 kts 108°
2026-05-06 18:55 48.38322 5.45678 34674 ft 484 kts 108°
2026-05-06 18:55 48.37312 5.50520 34831 ft 485 kts 109°
2026-05-06 18:55 48.36299 5.55359 34986 ft 485 kts 109°
2026-05-06 18:56 48.35300 5.60125 35131 ft 486 kts 109°
2026-05-06 18:56 48.34281 5.64977 35244 ft 487 kts 109°
2026-05-06 18:56 48.33258 5.69829 35382 ft 487 kts 109°
2026-05-06 18:56 48.32277 5.74705 35523 ft 488 kts 106°
2026-05-06 18:57 48.31655 5.79723 35644 ft 491 kts 97°
2026-05-06 18:57 48.31564 5.84855 35758 ft 493 kts 88°
2026-05-06 18:57 48.31813 5.89926 35899 ft 494 kts 86°
2026-05-06 18:57 48.32159 5.95058 36015 ft 494 kts 85°
2026-05-06 18:58 48.32545 6.00193 36155 ft 495 kts 84°
2026-05-06 18:58 48.33328 6.10485 36317 ft 498 kts 85°
2026-05-06 18:58 48.33706 6.15663 36453 ft 498 kts 85°
2026-05-06 18:59 48.34072 6.20831 36588 ft 498 kts 85°
2026-05-06 18:59 48.34429 6.26000 36715 ft 498 kts 85°
2026-05-06 18:59 48.34782 6.31191 36837 ft 499 kts 85°
2026-05-06 19:00 48.35480 6.41605 36898 ft 504 kts 85°
2026-05-06 19:00 48.36171 6.52054 36902 ft 506 kts 86°
2026-05-06 19:01 48.36859 6.62582 36908 ft 506 kts 86°
2026-05-06 19:01 48.37540 6.73132 36901 ft 506 kts 86°
2026-05-06 19:02 48.38205 6.83602 36895 ft 506 kts 86°
2026-05-06 19:02 48.38865 6.94133 36892 ft 506 kts 86°
2026-05-06 19:03 48.39516 7.04687 36896 ft 507 kts 86°
2026-05-06 19:03 48.40158 7.15250 36891 ft 507 kts 86°
2026-05-06 19:04 48.40790 7.25811 36888 ft 507 kts 86°
2026-05-06 19:04 48.41413 7.36377 36877 ft 507 kts 87°
2026-05-06 19:05 48.42021 7.46873 36891 ft 506 kts 87°
2026-05-06 19:05 48.42622 7.57402 36877 ft 506 kts 87°
2026-05-06 19:06 48.43213 7.67942 36880 ft 506 kts 87°
2026-05-06 19:06 48.42990 7.78446 36859 ft 501 kts 99°
2026-05-06 19:07 48.42067 7.88789 36885 ft 502 kts 101°
2026-05-06 19:07 48.41023 7.99166 36885 ft 502 kts 101°
2026-05-06 19:08 48.39970 8.09552 36881 ft 502 kts 101°
2026-05-06 19:08 48.38923 8.19935 36882 ft 502 kts 101°
2026-05-06 19:09 48.37872 8.30327 36875 ft 502 kts 101°
2026-05-06 19:09 48.36822 8.40630 36880 ft 502 kts 102°
2026-05-06 19:10 48.35757 8.50994 36882 ft 502 kts 102°
2026-05-06 19:10 48.34679 8.61370 36870 ft 502 kts 102°
2026-05-06 19:11 48.33594 8.71731 36880 ft 502 kts 102°
2026-05-06 19:11 48.32497 8.82098 36882 ft 502 kts 102°
2026-05-06 19:12 48.31397 8.92404 36880 ft 503 kts 102°
2026-05-06 19:12 48.30282 9.02766 36877 ft 503 kts 102°
2026-05-06 19:13 48.29158 9.13121 36878 ft 502 kts 103°
2026-05-06 19:13 48.28029 9.23437 36881 ft 502 kts 103°
2026-05-06 19:14 48.26884 9.33796 36883 ft 503 kts 103°
2026-05-06 19:14 48.25737 9.44094 36877 ft 504 kts 103°
2026-05-06 19:15 48.24579 9.54447 36875 ft 504 kts 103°
2026-05-06 19:15 48.23413 9.64821 36868 ft 504 kts 103°
2026-05-06 19:16 48.22238 9.75180 36856 ft 504 kts 103°
2026-05-06 19:16 48.21061 9.85466 36855 ft 504 kts 103°
2026-05-06 19:17 48.19870 9.95802 36855 ft 503 kts 104°
2026-05-06 19:17 48.18668 10.06133 36857 ft 503 kts 104°
2026-05-06 19:18 48.17457 10.16461 36865 ft 503 kts 104°
2026-05-06 19:18 48.16237 10.26777 36884 ft 503 kts 104°
2026-05-06 19:19 48.15015 10.37028 36883 ft 504 kts 104°
2026-05-06 19:19 48.13776 10.47345 36878 ft 504 kts 104°
2026-05-06 19:20 48.12528 10.57653 36880 ft 504 kts 104°
2026-05-06 19:20 48.11270 10.67965 36881 ft 504 kts 104°
2026-05-06 19:21 48.10004 10.78268 36885 ft 503 kts 105°
2026-05-06 19:21 48.08731 10.88547 36884 ft 502 kts 105°
2026-05-06 19:22 48.07456 10.98748 36881 ft 502 kts 105°
2026-05-06 19:22 48.06166 11.09003 36880 ft 502 kts 105°
2026-05-06 19:23 48.04867 11.19246 36879 ft 502 kts 105°
2026-05-06 19:23 48.03559 11.29491 36885 ft 502 kts 105°
2026-05-06 19:24 48.02242 11.39724 36883 ft 502 kts 105°
2026-05-06 19:24 48.00926 11.49878 36879 ft 502 kts 105°
2026-05-06 19:25 47.99590 11.60110 36875 ft 502 kts 105°
2026-05-06 19:25 47.98243 11.70342 36869 ft 502 kts 106°
2026-05-06 19:26 47.96889 11.80570 36872 ft 502 kts 106°
2026-05-06 19:26 47.95525 11.90790 36871 ft 502 kts 106°
2026-05-06 19:27 47.94154 12.00986 36871 ft 503 kts 106°
2026-05-06 19:27 47.92769 12.11222 36873 ft 503 kts 106°
2026-05-06 19:28 47.91386 12.21371 36871 ft 503 kts 106°
2026-05-06 19:28 47.89983 12.31590 36877 ft 503 kts 106°
2026-05-06 19:29 47.88571 12.41804 36878 ft 503 kts 106°
2026-05-06 19:29 47.87162 12.51929 36874 ft 503 kts 107°
2026-05-06 19:30 47.85733 12.62124 36876 ft 503 kts 107°
2026-05-06 19:30 47.84296 12.72307 36877 ft 503 kts 107°
2026-05-06 19:31 47.82891 12.82504 36880 ft 505 kts 106°
2026-05-06 19:31 47.80874 12.97940 36888 ft 507 kts 106°
2026-05-06 19:32 47.79511 13.08224 36886 ft 507 kts 106°
2026-05-06 19:32 47.78138 13.18433 36844 ft 506 kts 106°
2026-05-06 19:33 47.76746 13.28704 36853 ft 507 kts 106°
2026-05-06 19:33 47.75348 13.38975 36854 ft 507 kts 106°
2026-05-06 19:34 47.73927 13.49258 36839 ft 508 kts 107°
2026-05-06 19:34 47.72498 13.59526 36800 ft 507 kts 107°
2026-05-06 19:35 47.71061 13.69806 36826 ft 509 kts 107°
2026-05-06 19:35 47.69615 13.80089 36814 ft 510 kts 107°
2026-05-06 19:36 47.68168 13.90319 36810 ft 509 kts 107°
2026-05-06 19:36 47.66704 14.00601 36800 ft 510 kts 107°
2026-05-06 19:37 47.65220 14.10933 36818 ft 514 kts 107°
2026-05-06 19:37 47.63719 14.21311 36813 ft 514 kts 107°
2026-05-06 19:38 47.62224 14.31593 36794 ft 514 kts 107°
2026-05-06 19:38 47.60710 14.41942 36808 ft 514 kts 108°
2026-05-06 19:39 47.59186 14.52285 36807 ft 514 kts 107°
2026-05-06 19:39 47.57650 14.62626 36816 ft 514 kts 107°
2026-05-06 19:40 47.56108 14.72946 36816 ft 514 kts 108°
2026-05-06 19:40 47.54552 14.83271 36817 ft 514 kts 107°
2026-05-06 19:41 47.52988 14.93571 36825 ft 517 kts 107°
2026-05-06 19:41 47.51413 15.03939 36830 ft 517 kts 107°
2026-05-06 19:42 47.49825 15.14304 36829 ft 516 kts 107°
2026-05-06 19:42 47.48233 15.24632 36829 ft 513 kts 107°
2026-05-06 19:43 47.46650 15.34821 36837 ft 510 kts 107°
2026-05-06 19:43 47.45050 15.45035 36841 ft 510 kts 108°
2026-05-06 19:44 47.43443 15.55239 36844 ft 510 kts 108°
2026-05-06 19:44 47.41832 15.65434 36842 ft 510 kts 108°
2026-05-06 19:45 47.40220 15.75560 36838 ft 510 kts 108°
2026-05-06 19:45 47.38590 15.85731 36837 ft 509 kts 108°
2026-05-06 19:46 47.36966 15.95796 36838 ft 509 kts 108°
2026-05-06 19:46 47.35304 16.06039 36832 ft 510 kts 108°
2026-05-06 19:47 47.33645 16.16208 36833 ft 510 kts 108°
2026-05-06 19:47 47.31986 16.26308 36831 ft 510 kts 108°
2026-05-06 19:48 47.30310 16.36457 36835 ft 510 kts 108°
2026-05-06 19:48 47.28623 16.46610 36841 ft 510 kts 108°
2026-05-06 19:49 47.26796 16.56690 36843 ft 508 kts 111°
2026-05-06 19:49 47.24774 16.66577 36843 ft 508 kts 111°
2026-05-06 19:50 47.22734 16.76528 36825 ft 508 kts 111°
2026-05-06 19:50 47.20721 16.86493 36847 ft 508 kts 111°
2026-05-06 19:51 47.18718 16.96451 36849 ft 508 kts 111°
2026-05-06 19:51 47.16708 17.06413 36852 ft 508 kts 111°
2026-05-06 19:52 47.14703 17.16287 36841 ft 508 kts 110°
2026-05-06 19:52 47.12678 17.26211 36863 ft 507 kts 110°
2026-05-06 19:53 47.10645 17.36111 36858 ft 507 kts 110°
2026-05-06 19:53 47.08602 17.46009 36865 ft 507 kts 110°
2026-05-06 19:54 47.06565 17.55841 36872 ft 507 kts 110°
2026-05-06 19:54 47.04506 17.65728 36873 ft 507 kts 110°
2026-05-06 19:55 47.02441 17.75597 36878 ft 507 kts 110°
2026-05-06 19:55 47.00364 17.85471 36884 ft 507 kts 110°
2026-05-06 19:56 46.98281 17.95325 36882 ft 507 kts 110°
2026-05-06 19:56 46.96203 18.05111 36887 ft 507 kts 110°
2026-05-06 19:57 46.94104 18.14953 36890 ft 507 kts 110°
2026-05-06 19:57 46.91996 18.24784 36892 ft 507 kts 110°
2026-05-06 19:58 46.89882 18.34597 36894 ft 506 kts 110°
2026-05-06 19:58 46.87773 18.44338 36900 ft 505 kts 110°
2026-05-06 19:59 46.85646 18.54120 36900 ft 505 kts 110°
2026-05-06 19:59 46.83508 18.63905 36900 ft 505 kts 110°
2026-05-06 20:00 46.81368 18.73655 36906 ft 503 kts 110°
2026-05-06 20:00 46.79227 18.83364 36906 ft 502 kts 110°
2026-05-06 20:01 46.77093 18.92994 36903 ft 502 kts 110°
2026-05-06 20:01 46.74939 19.02671 36891 ft 502 kts 110°
2026-05-06 20:02 46.72779 19.12333 36911 ft 501 kts 111°
2026-05-06 20:02 46.70613 19.21976 36912 ft 500 kts 111°
2026-05-06 20:03 46.68457 19.31529 36912 ft 500 kts 111°
2026-05-06 20:03 46.66276 19.41150 36897 ft 500 kts 111°
2026-05-06 20:04 46.64094 19.50739 36920 ft 499 kts 111°
2026-05-06 20:04 46.61903 19.60319 36911 ft 498 kts 111°
2026-05-06 20:05 46.59709 19.69868 36902 ft 498 kts 111°
2026-05-06 20:05 46.57519 19.79358 36907 ft 498 kts 111°
2026-05-06 20:06 46.55309 19.88892 36911 ft 497 kts 111°
2026-05-06 20:06 46.53094 19.98411 36904 ft 497 kts 111°
2026-05-06 20:07 46.50870 20.07920 36895 ft 497 kts 111°
2026-05-06 20:07 46.48656 20.17351 36896 ft 497 kts 111°
2026-05-06 20:08 46.46415 20.26855 36900 ft 497 kts 111°
2026-05-06 20:08 46.44170 20.36335 36900 ft 497 kts 111°
2026-05-06 20:09 46.41916 20.45811 36903 ft 497 kts 111°
2026-05-06 20:09 46.39651 20.55290 36904 ft 499 kts 111°
2026-05-06 20:10 46.37390 20.64711 36910 ft 499 kts 111°
2026-05-06 20:10 46.35102 20.74210 36909 ft 499 kts 111°
2026-05-06 20:11 46.32809 20.83686 36918 ft 499 kts 112°
2026-05-06 20:11 46.30504 20.93171 36923 ft 501 kts 111°
2026-05-06 20:12 46.28199 21.02616 36928 ft 502 kts 112°
2026-05-06 20:12 46.25867 21.12123 36936 ft 502 kts 112°
2026-05-06 20:13 46.23138 21.21369 36939 ft 500 kts 117°
2026-05-06 20:13 46.20160 21.30458 36926 ft 501 kts 117°
2026-05-06 20:14 46.17222 21.39580 36939 ft 501 kts 117°
2026-05-06 20:14 46.14357 21.48663 36937 ft 501 kts 117°
2026-05-06 20:15 46.11481 21.57818 36928 ft 501 kts 116°
2026-05-06 20:15 46.08592 21.66983 36947 ft 502 kts 116°
2026-05-06 20:16 46.05692 21.76139 36943 ft 502 kts 117°
2026-05-06 20:16 46.02806 21.85216 36952 ft 503 kts 117°
2026-05-06 20:17 45.99886 21.94360 36960 ft 503 kts 116°
2026-05-06 20:17 45.96955 22.03512 36963 ft 505 kts 116°
2026-05-06 20:18 45.94011 22.12671 36965 ft 505 kts 116°
2026-05-06 20:18 45.91082 22.21755 36971 ft 504 kts 116°
2026-05-06 20:19 45.88120 22.30901 36980 ft 506 kts 116°
2026-05-06 20:19 45.85143 22.40065 36979 ft 507 kts 116°
2026-05-06 20:20 45.82156 22.49231 36983 ft 507 kts 116°
2026-05-06 20:20 45.79157 22.58395 36983 ft 507 kts 116°
2026-05-06 20:21 45.76172 22.67489 36993 ft 509 kts 116°
2026-05-06 20:21 45.73150 22.76662 37000 ft 509 kts 116°
2026-05-06 20:22 45.70120 22.85827 37007 ft 509 kts 116°
2026-05-06 20:22 45.67084 22.94978 37010 ft 510 kts 116°
2026-05-06 20:23 45.64053 23.04081 37013 ft 511 kts 116°
2026-05-06 20:23 45.60994 23.13240 37029 ft 511 kts 116°
2026-05-06 20:24 45.57929 23.22384 37021 ft 510 kts 116°
2026-05-06 20:24 45.54854 23.31522 37033 ft 511 kts 116°
2026-05-06 20:25 45.51791 23.40594 37050 ft 511 kts 116°
2026-05-06 20:25 45.48696 23.49733 37047 ft 512 kts 116°
2026-05-06 20:26 45.45598 23.58849 37049 ft 511 kts 116°
2026-05-06 20:26 45.42490 23.67962 37054 ft 511 kts 116°
2026-05-06 20:27 45.39399 23.76991 37048 ft 511 kts 116°
2026-05-06 20:27 45.36278 23.86078 37054 ft 511 kts 116°
2026-05-06 20:28 45.33149 23.95157 37045 ft 512 kts 116°
2026-05-06 20:28 45.30006 24.04250 37045 ft 513 kts 116°
2026-05-06 20:29 45.26857 24.13328 37044 ft 512 kts 116°
2026-05-06 20:29 45.23721 24.22337 37044 ft 513 kts 116°
2026-05-06 20:30 45.18971 24.35922 37043 ft 513 kts 116°
2026-05-06 20:31 45.15795 24.44967 37046 ft 513 kts 116°
2026-05-06 20:31 45.12637 24.53934 37049 ft 512 kts 115°
2026-05-06 20:32 45.09448 24.62960 37043 ft 512 kts 115°
2026-05-06 20:32 45.06256 24.71961 37047 ft 512 kts 116°
2026-05-06 20:33 45.03060 24.80947 37036 ft 512 kts 116°
2026-05-06 20:33 44.99855 24.89925 37042 ft 512 kts 116°
2026-05-06 20:34 44.96661 24.98842 37043 ft 512 kts 116°
2026-05-06 20:34 44.93446 25.07789 37048 ft 511 kts 116°
2026-05-06 20:35 44.90221 25.16736 37060 ft 511 kts 116°
2026-05-06 20:35 44.86989 25.25673 37048 ft 512 kts 115°
2026-05-06 20:36 44.83769 25.34547 37051 ft 512 kts 115°
2026-05-06 20:36 44.80518 25.43476 37052 ft 512 kts 116°
2026-05-06 20:37 44.77261 25.52392 37047 ft 512 kts 115°
2026-05-06 20:37 44.73994 25.61306 37042 ft 513 kts 115°
2026-05-06 20:38 44.70741 25.70157 37047 ft 513 kts 116°
2026-05-06 20:38 44.67463 25.79043 37053 ft 513 kts 116°
2026-05-06 20:39 44.64172 25.87937 37047 ft 513 kts 116°
2026-05-06 20:39 44.60878 25.96812 37048 ft 513 kts 116°
2026-05-06 20:40 44.57598 26.05620 37048 ft 513 kts 116°
2026-05-06 20:40 44.54290 26.14475 37049 ft 512 kts 116°
2026-05-06 20:41 44.50978 26.23311 37048 ft 512 kts 116°
2026-05-06 20:41 44.47659 26.32138 37045 ft 512 kts 116°
2026-05-06 20:42 44.44336 26.40948 37054 ft 512 kts 116°
2026-05-06 20:42 44.41025 26.49701 37048 ft 512 kts 116°
2026-05-06 20:43 44.37684 26.58502 37053 ft 513 kts 116°
2026-05-06 20:43 44.34335 26.67296 37053 ft 513 kts 116°
2026-05-06 20:44 44.30979 26.76084 37051 ft 513 kts 116°
2026-05-06 20:44 44.27614 26.84865 37053 ft 513 kts 116°
2026-05-06 20:45 44.24268 26.93568 37052 ft 513 kts 116°
2026-05-06 20:45 44.20890 27.02330 37066 ft 513 kts 116°
2026-05-06 20:46 44.17505 27.11080 37061 ft 513 kts 116°
2026-05-06 20:46 44.14114 27.19821 37064 ft 513 kts 116°
2026-05-06 20:47 44.10739 27.28493 37066 ft 513 kts 116°
2026-05-06 20:47 44.07332 27.37219 37069 ft 513 kts 116°
2026-05-06 20:48 44.03920 27.45930 37072 ft 513 kts 116°
2026-05-06 20:48 44.00502 27.54632 37074 ft 513 kts 116°
2026-05-06 20:49 43.97098 27.63269 37088 ft 513 kts 116°
2026-05-06 20:49 43.93676 27.71926 37087 ft 512 kts 116°
2026-05-06 20:50 43.90248 27.80575 37087 ft 511 kts 116°
2026-05-06 20:50 43.86815 27.89207 37102 ft 511 kts 116°
2026-05-06 20:51 43.83399 27.97769 37102 ft 510 kts 116°
2026-05-06 20:51 43.79968 28.06346 37095 ft 511 kts 116°
2026-05-06 20:52 43.76511 28.14963 37098 ft 512 kts 117°
2026-05-06 20:52 43.73049 28.23563 37107 ft 511 kts 117°
2026-05-06 20:53 43.69614 28.32071 37106 ft 510 kts 117°
2026-05-06 20:53 43.66149 28.40629 37107 ft 510 kts 117°
2026-05-06 20:54 43.62678 28.49175 37120 ft 510 kts 117°
2026-05-06 20:54 43.59205 28.57700 37115 ft 509 kts 117°
2026-05-06 20:55 43.55731 28.66203 37121 ft 509 kts 117°
2026-05-06 20:55 43.52273 28.74641 37122 ft 509 kts 117°
2026-05-06 20:56 43.48786 28.83126 37121 ft 509 kts 117°
2026-05-06 20:56 43.45297 28.91590 37121 ft 509 kts 117°
2026-05-06 20:57 43.41819 29.00002 37122 ft 509 kts 117°
2026-05-06 20:57 43.38316 29.08453 37123 ft 508 kts 117°
2026-05-06 20:58 43.34807 29.16890 37121 ft 508 kts 117°
2026-05-06 20:58 43.31293 29.25318 37124 ft 508 kts 117°
2026-05-06 20:59 43.27798 29.33673 37137 ft 508 kts 117°
2026-05-06 20:59 43.24277 29.42066 37123 ft 507 kts 117°
2026-05-06 21:00 43.20758 29.50430 37125 ft 506 kts 117°
2026-05-06 21:00 43.17228 29.58795 37127 ft 508 kts 117°
2026-05-06 21:01 43.13679 29.67185 37125 ft 509 kts 118°
2026-05-06 21:01 43.10147 29.75510 37123 ft 509 kts 118°
2026-05-06 21:02 43.06584 29.83882 37124 ft 509 kts 118°
2026-05-06 21:02 43.03015 29.92243 37125 ft 508 kts 118°
2026-05-06 21:03 42.99476 30.00509 37126 ft 507 kts 118°
2026-05-06 21:03 42.95908 30.08821 37127 ft 507 kts 118°
2026-05-06 21:04 42.92338 30.17116 37134 ft 507 kts 118°
2026-05-06 21:04 42.88759 30.25406 37124 ft 507 kts 118°
2026-05-06 21:05 42.85173 30.33693 37124 ft 507 kts 118°
2026-05-06 21:05 42.81605 30.41911 37127 ft 507 kts 118°
2026-05-06 21:06 42.78002 30.50188 37124 ft 508 kts 118°
2026-05-06 21:06 42.74690 30.58637 37125 ft 504 kts 108°
2026-05-06 21:07 42.73045 30.67747 37118 ft 498 kts 96°
2026-05-06 21:07 42.72056 30.77054 37126 ft 497 kts 94°
2026-05-06 21:08 42.71150 30.86379 37122 ft 497 kts 94°
2026-05-06 21:08 42.70220 30.95696 37118 ft 497 kts 94°
2026-05-06 21:09 42.69266 31.04950 37114 ft 498 kts 95°
2026-05-06 21:09 42.68290 31.14260 37118 ft 497 kts 95°
2026-05-06 21:10 42.67308 31.23565 37116 ft 498 kts 95°
2026-05-06 21:10 42.66318 31.32873 37119 ft 498 kts 95°
2026-05-06 21:11 42.65328 31.42113 37114 ft 497 kts 95°
2026-05-06 21:11 42.64325 31.51395 37118 ft 496 kts 95°
2026-05-06 21:12 42.63318 31.60656 37114 ft 496 kts 95°
2026-05-06 21:12 42.62300 31.69937 37120 ft 496 kts 95°
2026-05-06 21:13 42.61277 31.79202 37115 ft 496 kts 95°
2026-05-06 21:13 42.60253 31.88402 37120 ft 496 kts 95°
2026-05-06 21:14 42.59213 31.97671 37118 ft 497 kts 95°
2026-05-06 21:14 42.58349 32.05380 37116 ft 497 kts 95°
2026-05-06 21:15 42.57140 32.16155 37114 ft 497 kts 95°
2026-05-06 21:15 42.56075 32.25413 37119 ft 497 kts 95°
2026-05-06 21:16 42.55181 32.33126 37115 ft 498 kts 96°
2026-05-06 21:16 42.54101 32.42400 37122 ft 498 kts 96°
2026-05-06 21:17 42.52840 32.53159 37115 ft 497 kts 96°
2026-05-06 21:17 42.51926 32.60908 37116 ft 497 kts 96°
2026-05-06 21:18 42.50834 32.70105 37114 ft 498 kts 96°
2026-05-06 21:18 42.49727 32.79360 37116 ft 498 kts 96°
2026-05-06 21:19 42.48612 32.88612 37116 ft 498 kts 96°
2026-05-06 21:19 42.47491 32.97861 37116 ft 498 kts 96°
2026-05-06 21:20 42.46369 33.07044 37116 ft 498 kts 96°
2026-05-06 21:20 42.45234 33.16292 37116 ft 498 kts 96°
2026-05-06 21:21 42.44091 33.25531 37116 ft 498 kts 96°
2026-05-06 21:21 42.42934 33.34770 37119 ft 498 kts 97°
2026-05-06 21:22 42.41777 33.43955 37129 ft 498 kts 97°
2026-05-06 21:22 42.40609 33.53192 37119 ft 497 kts 97°
2026-05-06 21:23 42.39437 33.62390 37119 ft 496 kts 97°
2026-05-06 21:23 42.38259 33.71592 37122 ft 496 kts 97°
2026-05-06 21:24 42.37081 33.80730 37123 ft 496 kts 97°
2026-05-06 21:24 42.35887 33.89928 37121 ft 497 kts 97°
2026-05-06 21:25 42.34693 33.99124 37133 ft 497 kts 98°
2026-05-06 21:25 42.33487 34.08316 37124 ft 497 kts 98°
2026-05-06 21:26 42.32281 34.17451 37124 ft 497 kts 98°
2026-05-06 21:26 42.31059 34.26653 37125 ft 497 kts 98°
2026-05-06 21:27 42.29832 34.35846 37131 ft 497 kts 98°
2026-05-06 21:27 42.28599 34.45040 37126 ft 498 kts 98°
2026-05-06 21:28 42.27354 34.54220 37122 ft 496 kts 98°
2026-05-06 21:28 42.26111 34.63322 37127 ft 496 kts 98°
2026-05-06 21:29 42.24854 34.72480 37133 ft 496 kts 98°
2026-05-06 21:29 42.23591 34.81643 37131 ft 496 kts 98°
2026-05-06 21:30 42.22321 34.90794 37128 ft 497 kts 99°
2026-05-06 21:30 42.21043 34.99886 37134 ft 497 kts 99°
2026-05-06 21:31 42.19752 35.09036 37130 ft 497 kts 99°
2026-05-06 21:31 42.18453 35.18187 37138 ft 497 kts 99°
2026-05-06 21:32 42.17149 35.27332 37125 ft 497 kts 99°
2026-05-06 21:32 42.15188 35.40981 37134 ft 497 kts 99°
2026-05-06 21:33 42.13868 35.50123 37144 ft 497 kts 100°
2026-05-06 21:33 42.12541 35.59256 37139 ft 496 kts 100°
2026-05-06 21:34 42.11218 35.68314 37141 ft 496 kts 100°
2026-05-06 21:34 42.09879 35.77428 37144 ft 496 kts 100°
2026-05-06 21:35 42.08531 35.86552 37142 ft 497 kts 100°
2026-05-06 21:35 42.07176 35.95666 37145 ft 497 kts 100°
2026-05-06 21:36 42.05823 36.04716 37143 ft 497 kts 100°
2026-05-06 21:36 42.04453 36.13833 37148 ft 497 kts 101°
2026-05-06 21:37 42.03075 36.22945 37147 ft 497 kts 101°
2026-05-06 21:37 42.01689 36.32062 37153 ft 498 kts 101°
2026-05-06 21:38 42.00304 36.41116 37146 ft 498 kts 101°
2026-05-06 21:38 41.98905 36.50218 37154 ft 497 kts 101°
2026-05-06 21:39 41.97499 36.59309 37152 ft 496 kts 101°
2026-05-06 21:39 41.96089 36.68379 37151 ft 496 kts 101°
2026-05-06 21:40 41.94680 36.77390 37153 ft 496 kts 101°
2026-05-06 21:40 41.93254 36.86466 37151 ft 497 kts 101°
2026-05-06 21:41 41.91819 36.95541 37150 ft 497 kts 102°
2026-05-06 21:41 41.90554 37.04652 37355 ft 496 kts 94°
2026-05-06 21:42 41.90359 37.09203 37592 ft 494 kts 92°
2026-05-06 21:42 41.90242 37.13804 37762 ft 494 kts 91°
2026-05-06 21:42 41.90162 37.18416 37906 ft 494 kts 91°
2026-05-06 21:42 41.90099 37.23036 38017 ft 495 kts 91°
2026-05-06 21:43 41.90041 37.27664 38159 ft 496 kts 91°
2026-05-06 21:43 41.89979 37.32286 38321 ft 495 kts 91°
2026-05-06 21:43 41.89913 37.36905 38473 ft 495 kts 91°
2026-05-06 21:43 41.89841 37.41527 38612 ft 495 kts 91°
2026-05-06 21:44 41.89767 37.46086 38740 ft 495 kts 91°
2026-05-06 21:44 41.89688 37.50716 38832 ft 496 kts 91°
2026-05-06 21:44 41.89606 37.55335 38937 ft 496 kts 91°
2026-05-06 21:44 41.89523 37.59968 39029 ft 496 kts 92°
2026-05-06 21:45 41.89350 37.69249 39135 ft 498 kts 92°
2026-05-06 21:45 41.89169 37.78580 39157 ft 502 kts 92°
2026-05-06 21:46 41.88982 37.87874 39156 ft 502 kts 92°
2026-05-06 21:46 41.88786 37.97225 39157 ft 501 kts 92°
2026-05-06 21:47 41.88583 38.06562 39156 ft 501 kts 92°
2026-05-06 21:47 41.88373 38.15854 39157 ft 502 kts 92°
2026-05-06 21:48 41.88154 38.25215 39157 ft 502 kts 92°
2026-05-06 21:48 41.87928 38.34573 39156 ft 502 kts 92°
2026-05-06 21:49 41.87694 38.43925 39154 ft 502 kts 92°
2026-05-06 21:49 41.87453 38.53241 39157 ft 504 kts 92°
2026-05-06 21:50 41.87202 38.62639 39154 ft 505 kts 92°
2026-05-06 21:50 41.86944 38.72054 39154 ft 504 kts 92°
2026-05-06 21:51 41.86678 38.81454 39153 ft 504 kts 93°
2026-05-06 21:51 41.86405 38.90857 39154 ft 505 kts 93°
2026-05-06 21:52 41.86125 39.00209 39155 ft 505 kts 93°
2026-05-06 21:52 41.85835 39.09631 39154 ft 505 kts 93°
2026-05-06 21:53 41.85538 39.19044 39154 ft 505 kts 93°
2026-05-06 21:53 41.85233 39.28464 39151 ft 505 kts 93°
2026-05-06 21:54 41.84923 39.37822 39154 ft 506 kts 93°
2026-05-06 21:54 41.84602 39.47258 39154 ft 506 kts 94°
2026-05-06 21:55 41.84274 39.56696 39153 ft 506 kts 94°
2026-05-06 21:55 41.83939 39.66130 39157 ft 506 kts 94°
2026-05-06 21:56 41.83596 39.75566 39153 ft 507 kts 94°
2026-05-06 21:56 41.83246 39.84942 39155 ft 507 kts 94°
2026-05-06 21:57 41.82887 39.94389 39154 ft 507 kts 94°
2026-05-06 21:57 41.82521 40.03838 39154 ft 507 kts 94°
2026-05-06 21:58 41.82149 40.13212 39150 ft 507 kts 94°
2026-05-06 21:58 41.81770 40.22674 39153 ft 509 kts 94°
2026-05-06 21:59 41.81375 40.32134 39157 ft 508 kts 94°
2026-05-06 21:59 41.80973 40.41591 39156 ft 508 kts 94°
2026-05-06 22:00 41.80568 40.50986 39158 ft 508 kts 95°
2026-05-06 22:00 41.80153 40.60433 39158 ft 508 kts 95°
2026-05-06 22:01 41.79731 40.69894 39157 ft 508 kts 95°
2026-05-06 22:01 41.79273 40.79337 39153 ft 508 kts 95°
2026-05-06 22:02 41.78796 40.88775 39155 ft 508 kts 95°
2026-05-06 22:02 41.78320 40.98141 39154 ft 507 kts 95°
2026-05-06 22:03 41.77837 41.07583 39157 ft 508 kts 95°
2026-05-06 22:03 41.77348 41.17019 39160 ft 508 kts 95°
2026-05-06 22:04 41.76851 41.26447 39167 ft 508 kts 95°
2026-05-06 22:04 41.76348 41.35824 39175 ft 508 kts 95°
2026-05-06 22:05 41.75835 41.45259 39179 ft 509 kts 96°
2026-05-06 22:05 41.75313 41.54714 39180 ft 508 kts 96°
2026-05-06 22:06 41.74784 41.64152 39182 ft 508 kts 96°
2026-05-06 22:06 41.74251 41.73530 39180 ft 508 kts 96°
2026-05-06 22:07 41.73707 41.82964 39178 ft 509 kts 96°
2026-05-06 22:07 41.73152 41.92440 39178 ft 511 kts 96°
2026-05-06 22:08 41.72588 42.01935 39179 ft 511 kts 96°
2026-05-06 22:08 41.72017 42.11425 39181 ft 512 kts 96°
2026-05-06 22:09 41.71441 42.20852 39177 ft 512 kts 97°
2026-05-06 22:09 41.70852 42.30369 39179 ft 514 kts 97°
2026-05-06 22:10 41.70255 42.39901 39174 ft 514 kts 97°
2026-05-06 22:10 41.69650 42.49432 39173 ft 514 kts 97°
2026-05-06 22:11 41.69041 42.58892 39165 ft 514 kts 97°
2026-05-06 22:11 41.68421 42.68415 39166 ft 514 kts 97°
2026-05-06 22:12 41.67791 42.77941 39165 ft 514 kts 97°
2026-05-06 22:12 41.67152 42.87464 39163 ft 514 kts 97°
2026-05-06 22:13 41.66073 42.96828 39163 ft 512 kts 103°
2026-05-06 22:13 41.64692 43.06161 39160 ft 512 kts 104°
2026-05-06 22:14 41.63354 43.15527 39165 ft 513 kts 103°
2026-05-06 22:14 41.62077 43.24906 39162 ft 513 kts 103°
2026-05-06 22:15 41.60825 43.34217 39163 ft 513 kts 103°
2026-05-06 22:15 41.59558 43.43589 39168 ft 513 kts 103°
2026-05-06 22:16 41.58275 43.52983 39159 ft 514 kts 103°
2026-05-06 22:16 41.56983 43.62385 39151 ft 515 kts 103°
2026-05-06 22:17 41.55683 43.71781 39154 ft 514 kts 103°
2026-05-06 22:17 41.54384 43.81113 39155 ft 516 kts 103°
2026-05-06 22:18 41.53063 43.90540 39142 ft 518 kts 103°
2026-05-06 22:18 41.51731 43.99986 39145 ft 518 kts 103°
2026-05-06 22:19 41.50392 44.09425 39140 ft 518 kts 103°
2026-05-06 22:19 41.49055 44.18801 39141 ft 518 kts 104°
2026-05-06 22:20 41.47699 44.28245 39134 ft 519 kts 104°
2026-05-06 22:20 41.46333 44.37695 39134 ft 519 kts 104°
2026-05-06 22:21 41.44961 44.47131 39129 ft 519 kts 104°
2026-05-06 22:21 41.43589 44.56512 39123 ft 519 kts 104°
2026-05-06 22:22 41.42202 44.65944 39127 ft 519 kts 104°
2026-05-06 22:22 41.40807 44.75374 39121 ft 519 kts 104°
2026-05-06 22:23 41.39419 44.84696 39090 ft 519 kts 105°
2026-05-06 22:23 41.38004 44.94150 39110 ft 518 kts 105°
2026-05-06 22:24 41.36588 45.03553 39108 ft 518 kts 105°
2026-05-06 22:24 41.34721 45.12749 39108 ft 513 kts 112°
2026-05-06 22:25 41.32463 45.21744 39100 ft 513 kts 113°
2026-05-06 22:25 41.30152 45.30672 39106 ft 514 kts 114°
2026-05-06 22:26 41.27820 45.39657 39110 ft 514 kts 113°
2026-05-06 22:26 41.25482 45.48666 39103 ft 516 kts 113°
2026-05-06 22:27 41.23137 45.57689 39098 ft 518 kts 114°
2026-05-06 22:27 41.20778 45.66739 39102 ft 519 kts 113°
2026-05-06 22:28 41.18425 45.75719 39096 ft 519 kts 114°
2026-05-06 22:28 41.16036 45.84755 39092 ft 519 kts 114°
2026-05-06 22:29 41.13635 45.93803 39091 ft 521 kts 114°
2026-05-06 22:29 41.11227 46.02858 39091 ft 521 kts 114°
2026-05-06 22:30 41.08827 46.11858 39106 ft 521 kts 114°
2026-05-06 22:30 41.06401 46.20916 39099 ft 522 kts 114°
2026-05-06 22:31 41.03965 46.29983 39099 ft 522 kts 114°
2026-05-06 22:31 41.01543 46.39046 39096 ft 522 kts 114°
2026-05-06 22:32 40.99137 46.48052 39085 ft 522 kts 114°
2026-05-06 22:32 40.96709 46.57093 39099 ft 522 kts 114°
2026-05-06 22:33 40.94269 46.66141 39097 ft 522 kts 114°
2026-05-06 22:33 40.91826 46.75168 39081 ft 522 kts 115°
2026-05-06 22:34 40.89374 46.84201 39092 ft 522 kts 115°
2026-05-06 22:34 40.86931 46.93152 39097 ft 522 kts 115°
2026-05-06 22:35 40.84450 47.02159 39094 ft 521 kts 115°
2026-05-06 22:35 40.81966 47.11154 39090 ft 522 kts 115°
2026-05-06 22:36 40.79466 47.20162 39092 ft 523 kts 115°
2026-05-06 22:36 40.76969 47.29095 39091 ft 522 kts 115°
2026-05-06 22:37 40.74446 47.38086 39081 ft 523 kts 116°
2026-05-06 22:37 40.71922 47.47082 39091 ft 524 kts 116°
2026-05-06 22:38 40.69389 47.56082 39095 ft 524 kts 116°
2026-05-06 22:38 40.66867 47.65013 39095 ft 524 kts 116°
2026-05-06 22:39 40.64321 47.73997 39097 ft 524 kts 116°
2026-05-06 22:39 40.61767 47.82978 39096 ft 524 kts 116°
2026-05-06 22:40 40.59330 47.92016 39097 ft 528 kts 109°
2026-05-06 22:40 40.58519 48.01634 39096 ft 539 kts 94°
2026-05-06 22:41 40.58859 48.16474 39101 ft 541 kts 91°
2026-05-06 22:42 40.59186 48.26368 39102 ft 541 kts 91°
2026-05-06 22:42 40.59460 48.36196 39096 ft 541 kts 92°
2026-05-06 22:43 40.59706 48.46079 39087 ft 541 kts 92°
2026-05-06 22:43 40.59939 48.55991 39094 ft 543 kts 92°
2026-05-06 22:44 40.60167 48.65926 39087 ft 544 kts 92°
2026-05-06 22:44 40.60389 48.75874 39089 ft 544 kts 92°
2026-05-06 22:45 40.60600 48.85764 39082 ft 544 kts 92°
2026-05-06 22:45 40.60805 48.95709 39085 ft 544 kts 92°
2026-05-06 22:46 40.61000 49.05672 39076 ft 546 kts 93°
2026-05-06 22:46 40.61187 49.15671 39074 ft 547 kts 93°
2026-05-06 22:47 40.61458 49.25630 39067 ft 549 kts 90°
2026-05-06 22:47 40.62085 49.35650 39062 ft 550 kts 89°
2026-05-06 22:48 40.62744 49.45675 39057 ft 550 kts 89°
2026-05-06 22:48 40.63342 49.55710 39030 ft 549 kts 90°
2026-05-06 22:49 40.63899 49.65776 39050 ft 552 kts 90°
2026-05-06 22:49 40.64440 49.75795 39059 ft 553 kts 90°
2026-05-06 22:50 40.64979 49.85888 39062 ft 553 kts 90°
2026-05-06 22:50 40.65511 49.95985 39064 ft 552 kts 90°
2026-05-06 22:51 40.66030 50.06003 39063 ft 552 kts 90°
2026-05-06 22:51 40.66544 50.16089 39057 ft 553 kts 90°
2026-05-06 22:52 40.67049 50.26211 39059 ft 555 kts 90°
2026-05-06 22:52 40.67547 50.36350 39053 ft 555 kts 91°
2026-05-06 22:53 40.68039 50.46484 39045 ft 555 kts 91°
2026-05-06 22:53 40.68519 50.56558 39042 ft 554 kts 91°
2026-05-06 22:54 40.68986 50.66695 39049 ft 554 kts 91°
2026-05-06 22:54 40.69445 50.76831 39045 ft 555 kts 91°
2026-05-06 22:55 40.69897 50.86980 39051 ft 555 kts 91°
2026-05-06 22:55 40.70338 50.97060 39050 ft 555 kts 91°
2026-05-06 22:56 40.70773 51.07204 39056 ft 555 kts 91°
2026-05-06 22:56 40.71200 51.17355 39056 ft 555 kts 91°
2026-05-06 22:57 40.71617 51.27510 39053 ft 554 kts 91°
2026-05-06 22:57 40.72023 51.37590 39051 ft 555 kts 91°
2026-05-06 22:58 40.72452 51.47747 39048 ft 556 kts 88°
2026-05-06 22:58 40.73800 51.57835 39048 ft 560 kts 81°
2026-05-06 22:59 40.75436 51.67876 39043 ft 560 kts 81°
2026-05-06 22:59 40.77099 51.77846 39048 ft 560 kts 81°
2026-05-06 23:00 40.78752 51.87885 39044 ft 560 kts 81°
2026-05-06 23:00 40.80383 51.97931 39045 ft 560 kts 81°
2026-05-06 23:01 40.82003 52.07990 39042 ft 560 kts 81°
2026-05-06 23:01 40.83601 52.17975 39041 ft 560 kts 81°
2026-05-06 23:02 40.85205 52.28048 39043 ft 560 kts 81°
2026-05-06 23:02 40.86798 52.38111 39037 ft 560 kts 81°
2026-05-06 23:03 40.88385 52.48194 39039 ft 560 kts 81°
2026-05-06 23:03 40.89939 52.58213 39031 ft 560 kts 83°
2026-05-06 23:04 40.90692 52.68390 39039 ft 556 kts 90°
2026-05-06 23:04 40.91156 52.78581 39036 ft 555 kts 91°
2026-05-06 23:05 40.91566 52.88779 39010 ft 555 kts 91°
2026-05-06 23:05 40.91975 52.98981 39031 ft 556 kts 91°
2026-05-06 23:06 40.92383 53.09116 39030 ft 556 kts 90°
2026-05-06 23:06 40.92792 53.19339 39032 ft 557 kts 91°
2026-05-06 23:07 40.93176 53.29567 39027 ft 557 kts 91°
2026-05-06 23:07 40.93548 53.39781 39024 ft 556 kts 91°
2026-05-06 23:08 40.93911 53.49938 39023 ft 557 kts 91°
2026-05-06 23:08 40.94270 53.60162 39023 ft 557 kts 91°
2026-05-06 23:09 40.94620 53.70393 39018 ft 557 kts 91°
2026-05-06 23:09 40.94961 53.80629 39018 ft 557 kts 91°
2026-05-06 23:10 40.95291 53.90786 39013 ft 557 kts 91°
2026-05-06 23:10 40.95614 54.01038 39007 ft 558 kts 91°
2026-05-06 23:11 40.95928 54.11297 38991 ft 558 kts 91°
2026-05-06 23:11 40.96234 54.21546 39004 ft 558 kts 91°
2026-05-06 23:12 40.96530 54.31808 39008 ft 558 kts 91°
2026-05-06 23:12 40.96816 54.42004 39000 ft 558 kts 91°
2026-05-06 23:13 40.97094 54.52273 39008 ft 558 kts 91°
2026-05-06 23:13 40.97363 54.62539 38996 ft 558 kts 91°
2026-05-06 23:14 40.97623 54.72798 38995 ft 558 kts 91°
2026-05-06 23:14 40.97872 54.83014 39006 ft 560 kts 91°
2026-05-06 23:15 40.98117 54.93303 39001 ft 560 kts 91°
2026-05-06 23:15 40.98342 55.03609 38995 ft 560 kts 91°
2026-05-06 23:16 40.98551 55.13915 38978 ft 561 kts 92°
2026-05-06 23:16 40.98753 55.24161 38983 ft 561 kts 92°
2026-05-06 23:17 40.98949 55.34480 38988 ft 561 kts 92°
2026-05-06 23:17 40.99136 55.44796 38979 ft 561 kts 91°
2026-05-06 23:18 40.99314 55.55121 38979 ft 561 kts 92°
2026-05-06 23:18 40.99483 55.65443 38974 ft 561 kts 92°
2026-05-06 23:19 40.99642 55.75700 38973 ft 561 kts 92°
2026-05-06 23:19 40.99805 55.86018 38965 ft 561 kts 91°
2026-05-06 23:20 40.99970 55.96329 38968 ft 560 kts 91°
2026-05-06 23:20 41.00125 56.06638 38964 ft 560 kts 91°
2026-05-06 23:21 41.00269 56.16886 38956 ft 560 kts 92°
2026-05-06 23:21 41.00404 56.27203 38953 ft 561 kts 91°
2026-05-06 23:22 41.00530 56.37526 38951 ft 561 kts 91°
2026-05-06 23:22 41.00655 56.47858 38948 ft 561 kts 91°
2026-05-06 23:23 41.01547 56.58074 38946 ft 563 kts 83°
2026-05-06 23:23 41.02747 56.68320 38935 ft 563 kts 82°
2026-05-06 23:24 41.03989 56.78566 38932 ft 563 kts 82°
2026-05-06 23:24 41.05210 56.88802 38933 ft 563 kts 82°
2026-05-06 23:25 41.06402 56.98973 38929 ft 562 kts 82°
2026-05-06 23:25 41.07587 57.09199 38925 ft 561 kts 82°
2026-05-06 23:26 41.08762 57.19428 38929 ft 561 kts 82°
2026-05-06 23:26 41.09927 57.29647 38924 ft 561 kts 82°
2026-05-06 23:27 41.11077 57.39808 38919 ft 560 kts 83°
2026-05-06 23:27 41.12223 57.50018 38918 ft 560 kts 83°
2026-05-06 23:28 41.13360 57.60240 38899 ft 560 kts 83°
2026-05-06 23:28 41.14488 57.70454 38917 ft 559 kts 83°
2026-05-06 23:29 41.15606 57.80665 38911 ft 559 kts 83°
2026-05-06 23:29 41.16707 57.90809 38908 ft 559 kts 83°
2026-05-06 23:30 41.17807 58.01027 38909 ft 559 kts 83°
2026-05-06 23:30 41.18898 58.11247 38909 ft 559 kts 83°
2026-05-06 23:31 41.19974 58.21402 38906 ft 559 kts 83°
2026-05-06 23:31 41.21046 58.31627 38904 ft 559 kts 83°
2026-05-06 23:32 41.22110 58.41855 38901 ft 559 kts 83°
2026-05-06 23:32 41.23166 58.52090 38898 ft 559 kts 83°
2026-05-06 23:33 41.24212 58.62323 38896 ft 560 kts 83°
2026-05-06 23:33 41.25243 58.72499 38892 ft 560 kts 83°
2026-05-06 23:34 41.26274 58.82767 38883 ft 560 kts 83°
2026-05-06 23:34 41.27295 58.93031 38883 ft 560 kts 83°
2026-05-06 23:35 41.28307 59.03298 38880 ft 560 kts 83°
2026-05-06 23:35 41.29309 59.13561 38871 ft 560 kts 83°
2026-05-06 23:36 41.30295 59.23748 38871 ft 559 kts 83°
2026-05-06 23:36 41.31279 59.34019 38868 ft 560 kts 83°
2026-05-06 23:37 41.32252 59.44277 38855 ft 558 kts 83°
2026-05-06 23:37 41.33214 59.54515 38840 ft 557 kts 83°
2026-05-06 23:38 41.34119 59.64690 38847 ft 557 kts 87°
2026-05-06 23:38 41.33991 59.74971 38838 ft 555 kts 94°
2026-05-06 23:39 41.33533 59.85203 38843 ft 554 kts 95°
2026-05-06 23:39 41.33015 59.95423 38831 ft 554 kts 96°
2026-05-06 23:40 41.32504 60.05569 38830 ft 554 kts 95°
2026-05-06 23:40 41.32009 60.15795 38828 ft 553 kts 95°
2026-05-06 23:41 41.31515 60.25990 38814 ft 552 kts 95°
2026-05-06 23:41 41.31013 60.36162 38817 ft 551 kts 95°
2026-05-06 23:42 41.30910 60.46295 38819 ft 552 kts 88°
2026-05-06 23:42 41.31383 60.56484 38806 ft 552 kts 86°
2026-05-06 23:43 41.31936 60.66649 38811 ft 551 kts 86°
2026-05-06 23:43 41.32481 60.76808 38806 ft 550 kts 86°
2026-05-06 23:44 41.33004 60.86961 38807 ft 550 kts 86°
2026-05-06 23:44 41.33509 60.97050 38807 ft 549 kts 86°
2026-05-06 23:45 41.34006 61.07171 38808 ft 548 kts 87°
2026-05-06 23:45 41.34495 61.17305 38812 ft 548 kts 87°
2026-05-06 23:46 41.34976 61.27430 38813 ft 548 kts 87°
2026-05-06 23:46 41.35443 61.37459 38817 ft 546 kts 87°
2026-05-06 23:47 41.35906 61.47539 38828 ft 546 kts 87°
2026-05-06 23:47 41.36361 61.57619 38823 ft 546 kts 87°
2026-05-06 23:48 41.36807 61.67713 38823 ft 546 kts 87°
2026-05-06 23:48 41.37242 61.77728 38837 ft 545 kts 87°
2026-05-06 23:49 41.37670 61.87801 38827 ft 545 kts 87°
2026-05-06 23:49 41.38090 61.97882 38830 ft 545 kts 87°
2026-05-06 23:50 41.38501 62.07952 38830 ft 545 kts 88°
2026-05-06 23:50 41.39098 62.22995 38846 ft 545 kts 88°
2026-05-06 23:51 41.39487 62.33075 38842 ft 545 kts 88°
2026-05-06 23:51 41.39867 62.43152 38837 ft 545 kts 88°
2026-05-06 23:52 41.40242 62.53235 38836 ft 545 kts 88°
2026-05-06 23:52 41.40633 62.63252 38833 ft 546 kts 87°
2026-05-06 23:53 41.41027 62.73354 38844 ft 546 kts 88°
2026-05-06 23:53 41.41409 62.83452 38847 ft 546 kts 88°
2026-05-06 23:54 41.41781 62.93559 38855 ft 546 kts 88°
2026-05-06 23:54 41.42140 63.03585 38862 ft 545 kts 88°
2026-05-06 23:55 41.42492 63.13678 38854 ft 545 kts 88°
2026-05-06 23:55 41.42836 63.23776 38858 ft 546 kts 88°
2026-05-06 23:56 41.43171 63.33874 38862 ft 546 kts 88°
2026-05-06 23:56 41.43498 63.43976 38874 ft 546 kts 88°
2026-05-06 23:57 41.43813 63.54001 38871 ft 545 kts 88°
2026-05-06 23:57 41.44122 63.64085 38873 ft 545 kts 88°
2026-05-06 23:58 41.44417 63.74170 38880 ft 545 kts 88°
2026-05-06 23:58 41.44689 63.84244 38874 ft 544 kts 88°
2026-05-06 23:59 41.44952 63.94316 38880 ft 544 kts 88°
2026-05-06 23:59 41.45206 64.04321 38885 ft 544 kts 88°
2026-05-07 00:00 41.45455 64.14390 38899 ft 543 kts 88°
2026-05-07 00:00 41.45655 64.22747 38892 ft 543 kts 88°
2026-05-07 00:01 41.45926 64.34518 38895 ft 543 kts 88°
2026-05-07 00:01 41.46147 64.44588 38903 ft 543 kts 88°
2026-05-07 00:02 41.46359 64.54577 38906 ft 543 kts 88°
2026-05-07 00:02 41.46564 64.64641 38907 ft 543 kts 88°
2026-05-07 00:03 41.46759 64.74700 38912 ft 543 kts 88°
2026-05-07 00:03 41.46947 64.84761 38910 ft 543 kts 88°
2026-05-07 00:04 41.47124 64.94759 38904 ft 543 kts 88°
2026-05-07 00:04 41.47294 65.04823 38905 ft 543 kts 88°
2026-05-07 00:05 41.47455 65.14887 38910 ft 543 kts 89°
2026-05-07 00:05 41.47607 65.24947 38912 ft 543 kts 89°
2026-05-07 00:06 41.47748 65.34936 38906 ft 543 kts 88°
2026-05-07 00:06 41.47883 65.44991 38908 ft 542 kts 89°
2026-05-07 00:07 41.48009 65.55044 38907 ft 542 kts 89°
2026-05-07 00:07 41.48125 65.65095 38908 ft 542 kts 88°
2026-05-07 00:08 41.48233 65.75056 38905 ft 540 kts 89°
2026-05-07 00:08 41.48322 65.85076 38904 ft 540 kts 89°
2026-05-07 00:09 41.48342 65.95093 38907 ft 540 kts 89°
2026-05-07 00:09 41.48345 66.05092 38912 ft 539 kts 89°
2026-05-07 00:10 41.48348 66.15018 38913 ft 539 kts 89°
2026-05-07 00:10 41.48349 66.25008 38915 ft 539 kts 89°
2026-05-07 00:11 41.48342 66.34980 38917 ft 537 kts 89°
2026-05-07 00:11 41.48327 66.44942 38918 ft 537 kts 89°
2026-05-07 00:12 41.48307 66.53201 38919 ft 537 kts 89°
2026-05-07 00:12 41.47692 66.64713 38922 ft 535 kts 99°
2026-05-07 00:13 41.46360 66.74472 38923 ft 535 kts 101°
2026-05-07 00:13 41.45163 66.82556 38924 ft 535 kts 101°
2026-05-07 00:14 41.43475 66.93857 38926 ft 534 kts 101°
2026-05-07 00:14 41.42033 67.03552 38928 ft 533 kts 101°
2026-05-07 00:15 41.40834 67.11612 38931 ft 533 kts 101°
2026-05-07 00:15 41.39388 67.21292 38934 ft 533 kts 101°
2026-05-07 00:16 41.37933 67.30958 38938 ft 532 kts 101°
2026-05-07 00:16 41.36236 67.42163 38936 ft 531 kts 101°
2026-05-07 00:17 41.35015 67.50179 38938 ft 532 kts 101°
2026-05-07 00:17 41.33539 67.59813 38938 ft 531 kts 101°
2026-05-07 00:18 41.32059 67.69414 38941 ft 529 kts 101°
2026-05-07 00:18 41.30574 67.78997 38938 ft 529 kts 101°
2026-05-07 00:19 41.29080 67.88584 38939 ft 529 kts 101°
2026-05-07 00:19 41.27917 67.98163 38944 ft 528 kts 96°
2026-05-07 00:20 41.27028 68.07854 38940 ft 529 kts 95°
2026-05-07 00:20 41.26170 68.17567 38942 ft 529 kts 95°
2026-05-07 00:21 41.25304 68.27257 38949 ft 527 kts 96°
2026-05-07 00:21 41.24432 68.36840 38952 ft 525 kts 96°
2026-05-07 00:22 41.23545 68.46469 38952 ft 525 kts 96°
2026-05-07 00:22 41.22649 68.56097 38954 ft 525 kts 96°
2026-05-07 00:23 41.21748 68.65701 38952 ft 523 kts 96°
2026-05-07 00:23 41.20845 68.75227 38958 ft 523 kts 96°
2026-05-07 00:24 41.19930 68.84808 38955 ft 523 kts 96°
2026-05-07 00:24 41.19223 68.94399 38955 ft 521 kts 91°
2026-05-07 00:25 41.18928 69.03988 38960 ft 520 kts 91°
2026-05-07 00:25 41.18691 69.13504 38963 ft 519 kts 90°
2026-05-07 00:26 41.18447 69.23087 38965 ft 519 kts 91°
2026-05-07 00:26 41.17847 69.32628 38968 ft 518 kts 96°
2026-05-07 00:27 41.16953 69.42111 38982 ft 518 kts 96°
2026-05-07 00:27 41.16097 69.51528 38969 ft 518 kts 95°
2026-05-07 00:28 41.15288 69.61024 38995 ft 517 kts 95°
2026-05-07 00:28 41.14493 69.70512 39015 ft 517 kts 95°
2026-05-07 00:29 41.13692 69.79995 39039 ft 517 kts 95°
2026-05-07 00:30 41.12066 69.98884 39059 ft 517 kts 96°
2026-05-07 00:30 41.11238 70.08357 39074 ft 517 kts 95°
2026-05-07 00:31 41.10402 70.17826 39073 ft 517 kts 96°
2026-05-07 00:31 41.10127 70.27258 39089 ft 514 kts 84°
2026-05-07 00:32 41.10711 70.36689 39098 ft 513 kts 82°
2026-05-07 00:32 41.11417 70.46100 39097 ft 513 kts 82°
2026-05-07 00:33 41.12119 70.55514 39110 ft 513 kts 82°
2026-05-07 00:33 41.12792 70.64847 39099 ft 511 kts 83°
2026-05-07 00:34 41.13452 70.74235 39090 ft 511 kts 83°
2026-05-07 00:34 41.14105 70.83618 39084 ft 511 kts 83°
2026-05-07 00:35 41.14746 70.93002 39072 ft 509 kts 83°
2026-05-07 00:35 41.15375 71.02292 39062 ft 508 kts 83°
2026-05-07 00:36 41.15999 71.11630 39063 ft 508 kts 83°
2026-05-07 00:36 41.16613 71.20970 39051 ft 508 kts 83°
2026-05-07 00:37 41.17222 71.30310 39045 ft 508 kts 83°
2026-05-07 00:37 41.17821 71.39601 39048 ft 509 kts 83°
2026-05-07 00:38 41.18415 71.48947 39041 ft 508 kts 83°
2026-05-07 00:38 41.19003 71.58302 39026 ft 508 kts 83°
2026-05-07 00:39 41.19581 71.67642 39023 ft 506 kts 83°
2026-05-07 00:39 41.20150 71.76956 39026 ft 506 kts 83°
2026-05-07 00:40 41.20708 71.86208 39032 ft 506 kts 84°
2026-05-07 00:40 41.21258 71.95528 39032 ft 506 kts 84°
2026-05-07 00:41 41.21799 72.04835 39038 ft 505 kts 84°
2026-05-07 00:41 41.22333 72.14145 39046 ft 505 kts 84°
2026-05-07 00:42 41.22857 72.23392 39053 ft 505 kts 84°
2026-05-07 00:42 41.23378 72.32693 39047 ft 504 kts 83°
2026-05-07 00:43 41.23893 72.41982 39061 ft 504 kts 83°
2026-05-07 00:43 41.24402 72.51271 39063 ft 504 kts 83°
2026-05-07 00:44 41.24898 72.60503 39087 ft 504 kts 83°
2026-05-07 00:44 41.25389 72.69781 39084 ft 503 kts 83°
2026-05-07 00:45 41.25872 72.79048 39082 ft 502 kts 83°
2026-05-07 00:45 41.26347 72.88302 39094 ft 503 kts 83°
2026-05-07 00:46 41.26816 72.97582 39106 ft 502 kts 83°
2026-05-07 00:46 41.27272 73.06757 39100 ft 500 kts 83°
2026-05-07 00:47 41.27723 73.15979 39107 ft 500 kts 83°
2026-05-07 00:47 41.28168 73.25194 39105 ft 500 kts 83°
2026-05-07 00:48 41.28604 73.34417 39114 ft 499 kts 83°
2026-05-07 00:48 41.29028 73.43556 39132 ft 498 kts 83°
2026-05-07 00:49 41.29448 73.52739 39139 ft 497 kts 83°
2026-05-07 00:49 41.29861 73.61935 39158 ft 498 kts 83°
2026-05-07 00:50 41.30267 73.71123 39165 ft 498 kts 83°
2026-05-07 00:50 41.30665 73.80319 39184 ft 498 kts 83°
2026-05-07 00:51 41.31052 73.89444 39178 ft 498 kts 84°
2026-05-07 00:51 41.31436 73.98639 39187 ft 498 kts 84°
2026-05-07 00:52 41.31926 74.07810 39186 ft 496 kts 81°
2026-05-07 00:52 41.32638 74.16938 39187 ft 496 kts 80°
2026-05-07 00:53 41.33346 74.26070 39189 ft 496 kts 81°
2026-05-07 00:53 41.34003 74.35140 39194 ft 496 kts 81°
2026-05-07 00:54 41.34640 74.44282 39199 ft 495 kts 81°
2026-05-07 00:54 41.35262 74.53391 39194 ft 494 kts 81°
2026-05-07 00:55 41.35879 74.62484 39204 ft 493 kts 81°
2026-05-07 00:55 41.36489 74.71506 39202 ft 493 kts 81°
2026-05-07 00:56 41.37093 74.80587 39205 ft 492 kts 81°
2026-05-07 00:56 41.37691 74.89674 39210 ft 493 kts 81°
2026-05-07 00:57 41.38279 74.98765 39206 ft 493 kts 81°
2026-05-07 00:57 41.38859 75.07795 39218 ft 493 kts 81°
2026-05-07 00:58 41.39432 75.16846 39211 ft 489 kts 81°
2026-05-07 00:58 41.39997 75.25872 39214 ft 489 kts 81°
2026-05-07 00:59 41.40831 75.39404 39214 ft 489 kts 82°
2026-05-07 01:00 41.41373 75.48355 39218 ft 487 kts 82°
2026-05-07 01:00 41.41908 75.57324 39216 ft 485 kts 82°
2026-05-07 01:01 41.42437 75.66281 39216 ft 485 kts 82°
2026-05-07 01:01 41.42960 75.75237 39214 ft 485 kts 82°
2026-05-07 01:02 41.43476 75.84129 39217 ft 483 kts 82°
2026-05-07 01:02 41.43979 75.93047 39222 ft 482 kts 82°
2026-05-07 01:03 41.44476 76.01951 39227 ft 482 kts 82°
2026-05-07 01:03 41.44967 76.10858 39240 ft 483 kts 82°
2026-05-07 01:04 41.45451 76.19723 39236 ft 482 kts 82°
2026-05-07 01:04 41.45931 76.28648 39252 ft 483 kts 82°
2026-05-07 01:05 41.46401 76.37564 39267 ft 483 kts 82°
2026-05-07 01:05 41.46864 76.46438 39268 ft 483 kts 82°
2026-05-07 01:06 41.47321 76.55357 39291 ft 482 kts 82°
2026-05-07 01:06 41.47773 76.64277 39273 ft 481 kts 82°
2026-05-07 01:07 41.48215 76.73186 39297 ft 482 kts 83°
2026-05-07 01:07 41.48649 76.82036 39293 ft 481 kts 83°
2026-05-07 01:08 41.49080 76.90946 39303 ft 481 kts 83°
2026-05-07 01:08 41.49505 76.99860 39322 ft 483 kts 83°
2026-05-07 01:09 41.49923 77.08806 39326 ft 483 kts 83°
2026-05-07 01:09 41.50333 77.17750 39327 ft 483 kts 83°
2026-05-07 01:10 41.50734 77.26641 39337 ft 484 kts 84°
2026-05-07 01:10 41.51133 77.35621 39334 ft 486 kts 84°
2026-05-07 01:11 41.51524 77.44630 39336 ft 487 kts 84°
2026-05-07 01:11 41.51909 77.53644 39344 ft 487 kts 84°
2026-05-07 01:12 41.52288 77.62674 39354 ft 488 kts 84°
2026-05-07 01:12 41.52660 77.71674 39350 ft 490 kts 84°
2026-05-07 01:13 41.53026 77.80750 39347 ft 490 kts 84°
2026-05-07 01:13 41.53386 77.89835 39357 ft 490 kts 84°
2026-05-07 01:14 41.53736 77.98868 39364 ft 490 kts 85°
2026-05-07 01:14 41.54081 78.07944 39361 ft 490 kts 85°
2026-05-07 01:15 41.54422 78.17032 39357 ft 490 kts 85°
2026-05-07 01:15 41.54753 78.26118 39357 ft 490 kts 85°
2026-05-07 01:16 41.55076 78.35202 39353 ft 490 kts 85°
2026-05-07 01:16 41.55390 78.44233 39360 ft 490 kts 85°
2026-05-07 01:17 41.55700 78.53326 39359 ft 490 kts 85°
2026-05-07 01:17 41.56004 78.62424 39359 ft 490 kts 85°
2026-05-07 01:18 41.56299 78.71518 39355 ft 490 kts 85°
2026-05-07 01:18 41.56506 78.80613 39365 ft 492 kts 90°
2026-05-07 01:18 41.56145 78.85105 39515 ft 494 kts 99°
2026-05-07 01:19 41.55397 78.89590 39680 ft 495 kts 102°
2026-05-07 01:19 41.54550 78.94033 39807 ft 495 kts 103°
2026-05-07 01:19 41.53649 78.98479 39879 ft 496 kts 103°
2026-05-07 01:19 41.52729 79.02906 40005 ft 496 kts 104°
2026-05-07 01:20 41.51801 79.07335 40131 ft 496 kts 104°
2026-05-07 01:20 41.50873 79.11768 40264 ft 496 kts 104°
2026-05-07 01:20 41.49950 79.16200 40334 ft 496 kts 104°
2026-05-07 01:20 41.49043 79.20575 40452 ft 496 kts 104°
2026-05-07 01:21 41.48124 79.25010 40569 ft 496 kts 104°
2026-05-07 01:21 41.47207 79.29438 40676 ft 496 kts 104°
2026-05-07 01:21 41.46288 79.33871 40803 ft 496 kts 104°
2026-05-07 01:21 41.45366 79.38302 40914 ft 496 kts 104°
2026-05-07 01:22 41.44443 79.42733 41000 ft 496 kts 104°
2026-05-07 01:22 41.42589 79.51601 41149 ft 497 kts 104°
2026-05-07 01:23 41.40734 79.60429 41191 ft 498 kts 104°
2026-05-07 01:23 41.38861 79.69302 41178 ft 498 kts 104°
2026-05-07 01:24 41.36982 79.78166 41171 ft 497 kts 104°
2026-05-07 01:24 41.35097 79.87027 41178 ft 498 kts 104°
2026-05-07 01:25 41.33216 79.95833 41169 ft 498 kts 104°
2026-05-07 01:25 41.31318 80.04681 41166 ft 498 kts 104°
2026-05-07 01:26 41.29410 80.13536 41166 ft 498 kts 104°
2026-05-07 01:26 41.27497 80.22378 41168 ft 497 kts 104°
2026-05-07 01:27 41.25584 80.31208 41166 ft 497 kts 104°
2026-05-07 01:27 41.23752 80.39991 41165 ft 497 kts 104°
2026-05-07 01:28 41.21930 80.48835 41165 ft 497 kts 104°
2026-05-07 01:28 41.20092 80.57671 41167 ft 497 kts 104°
2026-05-07 01:29 41.18232 80.66530 41157 ft 498 kts 104°
2026-05-07 01:29 41.16375 80.75322 41165 ft 498 kts 104°
2026-05-07 01:30 41.14503 80.84152 41165 ft 497 kts 104°
2026-05-07 01:30 41.12622 80.92987 41175 ft 498 kts 104°
2026-05-07 01:31 41.10733 81.01830 41168 ft 499 kts 104°
2026-05-07 01:31 41.08844 81.10631 41170 ft 499 kts 104°
2026-05-07 01:32 41.06937 81.19478 41170 ft 499 kts 104°
2026-05-07 01:32 41.05023 81.28324 41181 ft 499 kts 104°
2026-05-07 01:33 41.03103 81.37161 41172 ft 500 kts 105°
2026-05-07 01:33 41.01173 81.46008 41175 ft 499 kts 105°
2026-05-07 01:34 40.99250 81.54784 41180 ft 499 kts 105°
2026-05-07 01:34 40.97312 81.63598 41178 ft 499 kts 105°
2026-05-07 01:35 40.95441 81.72440 41174 ft 499 kts 103°
2026-05-07 01:35 40.93792 81.81349 41173 ft 498 kts 102°
2026-05-07 01:36 40.92168 81.90193 41172 ft 498 kts 102°
2026-05-07 01:36 40.90491 81.99080 41170 ft 498 kts 103°
2026-05-07 01:37 40.88787 82.07964 41170 ft 498 kts 103°
2026-05-07 01:37 40.87074 82.16837 41170 ft 498 kts 103°
2026-05-07 01:38 40.85354 82.25710 41170 ft 499 kts 103°
2026-05-07 01:38 40.83640 82.34523 41170 ft 499 kts 103°
2026-05-07 01:39 40.81907 82.43390 41171 ft 498 kts 103°
2026-05-07 01:39 40.80173 82.52225 41170 ft 497 kts 103°
2026-05-07 01:40 40.78432 82.61055 41170 ft 497 kts 103°
2026-05-07 01:40 40.76697 82.69819 41170 ft 497 kts 103°
2026-05-07 01:41 40.74944 82.78634 41175 ft 497 kts 103°
2026-05-07 01:41 40.73184 82.87449 41170 ft 498 kts 103°
2026-05-07 01:42 40.71413 82.96277 41172 ft 498 kts 103°
2026-05-07 01:42 40.69647 83.05042 41167 ft 498 kts 103°
2026-05-07 01:43 40.67862 83.13866 41166 ft 499 kts 103°
2026-05-07 01:43 40.66068 83.22697 41168 ft 499 kts 103°
2026-05-07 01:44 40.64269 83.31513 41170 ft 499 kts 103°
2026-05-07 01:44 40.62474 83.40275 41167 ft 499 kts 104°
2026-05-07 01:45 40.60660 83.49086 41167 ft 499 kts 104°
2026-05-07 01:45 40.58840 83.57896 41174 ft 499 kts 104°
2026-05-07 01:46 40.57012 83.66705 41172 ft 499 kts 104°
2026-05-07 01:46 40.55179 83.75499 41169 ft 499 kts 104°
2026-05-07 01:47 40.53339 83.84290 41167 ft 499 kts 104°
2026-05-07 01:47 40.51503 83.93030 41175 ft 499 kts 104°
2026-05-07 01:48 40.49697 84.01825 41164 ft 499 kts 103°
2026-05-07 01:48 40.47925 84.10633 41170 ft 499 kts 103°
2026-05-07 01:49 40.46156 84.19372 41169 ft 499 kts 104°
2026-05-07 01:49 40.44360 84.28165 41172 ft 499 kts 104°
2026-05-07 01:50 40.42557 84.36945 41167 ft 498 kts 104°
2026-05-07 01:50 40.40746 84.45719 41168 ft 498 kts 104°
2026-05-07 01:51 40.38929 84.54488 41167 ft 498 kts 104°
2026-05-07 01:51 40.37119 84.63190 41167 ft 498 kts 104°
2026-05-07 01:52 40.35289 84.71953 41164 ft 498 kts 104°
2026-05-07 01:52 40.33451 84.80714 41168 ft 499 kts 104°
2026-05-07 01:53 40.31605 84.89474 41168 ft 499 kts 104°
2026-05-07 01:53 40.29766 84.98170 41164 ft 499 kts 105°
2026-05-07 01:54 40.27908 85.06921 41167 ft 499 kts 105°
2026-05-07 01:54 40.26043 85.15667 41165 ft 499 kts 105°
2026-05-07 01:55 40.24169 85.24420 41166 ft 499 kts 105°
2026-05-07 01:55 40.22303 85.33099 41163 ft 499 kts 105°
2026-05-07 01:56 40.20417 85.41836 41159 ft 499 kts 105°
2026-05-07 01:56 40.18525 85.50565 41156 ft 499 kts 105°
2026-05-07 01:57 40.16623 85.59307 41155 ft 500 kts 105°
2026-05-07 01:57 40.14714 85.68045 41157 ft 500 kts 105°
2026-05-07 01:58 40.12808 85.76736 41154 ft 501 kts 105°
2026-05-07 01:58 40.10884 85.85473 41156 ft 501 kts 106°
2026-05-07 01:59 40.08953 85.94208 41151 ft 501 kts 106°
2026-05-07 01:59 40.06996 86.02939 41153 ft 501 kts 107°
2026-05-07 02:00 40.04717 86.11457 41152 ft 501 kts 110°
2026-05-07 02:00 40.02295 86.19976 41151 ft 501 kts 110°
2026-05-07 02:01 39.99909 86.28515 41150 ft 501 kts 110°
2026-05-07 02:01 39.97557 86.37065 41148 ft 501 kts 110°
2026-05-07 02:02 39.95209 86.45615 41148 ft 501 kts 110°
2026-05-07 02:02 39.92868 86.54111 41149 ft 502 kts 110°
2026-05-07 02:03 39.90500 86.62666 41150 ft 502 kts 110°
2026-05-07 02:03 39.88128 86.71203 41151 ft 501 kts 110°
2026-05-07 02:04 39.85765 86.79680 41150 ft 501 kts 110°
2026-05-07 02:04 39.83381 86.88205 41151 ft 501 kts 110°
2026-05-07 02:05 39.80991 86.96722 41147 ft 501 kts 110°
2026-05-07 02:05 39.78595 87.05236 41151 ft 502 kts 110°
2026-05-07 02:06 39.76188 87.13757 41145 ft 502 kts 110°
2026-05-07 02:06 39.73793 87.22210 41146 ft 502 kts 111°
2026-05-07 02:07 39.71372 87.30724 41145 ft 502 kts 111°
2026-05-07 02:07 39.67731 87.43480 41140 ft 502 kts 111°
2026-05-07 02:08 39.65297 87.51974 41138 ft 502 kts 111°
2026-05-07 02:08 39.62873 87.60402 41142 ft 502 kts 111°
2026-05-07 02:09 39.60427 87.68884 41139 ft 502 kts 111°
2026-05-07 02:09 39.57973 87.77365 41141 ft 503 kts 111°
2026-05-07 02:10 39.55511 87.85847 41133 ft 503 kts 112°
2026-05-07 02:10 39.53051 87.94288 41144 ft 505 kts 112°
2026-05-07 02:11 39.50564 88.02798 41145 ft 505 kts 112°
2026-05-07 02:11 39.48071 88.11304 41142 ft 505 kts 112°
2026-05-07 02:12 39.45565 88.19825 41149 ft 507 kts 112°
2026-05-07 02:12 39.43070 88.28284 41148 ft 507 kts 112°
2026-05-07 02:13 39.40549 88.36802 41149 ft 507 kts 112°
2026-05-07 02:13 39.38022 88.45315 41149 ft 507 kts 112°
2026-05-07 02:14 39.35491 88.53817 41149 ft 508 kts 113°
2026-05-07 02:14 39.32962 88.62279 41147 ft 509 kts 113°
2026-05-07 02:15 39.30406 88.70805 41148 ft 510 kts 113°
2026-05-07 02:15 39.27842 88.79332 41162 ft 510 kts 113°
2026-05-07 02:16 39.25272 88.87855 41158 ft 510 kts 114°
2026-05-07 02:16 39.22692 88.96385 41160 ft 511 kts 114°
2026-05-07 02:17 39.20118 89.04862 41178 ft 511 kts 114°
2026-05-07 02:17 39.17523 89.13385 41181 ft 511 kts 114°
2026-05-07 02:18 39.14923 89.21897 41181 ft 511 kts 114°
2026-05-07 02:18 39.12313 89.30418 41192 ft 512 kts 114°
2026-05-07 02:19 39.09710 89.38886 41213 ft 512 kts 115°
2026-05-07 02:19 39.07083 89.47408 41221 ft 513 kts 115°
2026-05-07 02:20 39.04445 89.55939 41238 ft 513 kts 115°
2026-05-07 02:20 39.01804 89.64451 41267 ft 512 kts 115°
2026-05-07 02:21 38.99158 89.72956 41264 ft 512 kts 115°
2026-05-07 02:21 38.96523 89.81400 41264 ft 512 kts 115°
2026-05-07 02:22 38.93861 89.89894 41270 ft 513 kts 115°
2026-05-07 02:22 38.91196 89.98385 41289 ft 513 kts 115°
2026-05-07 02:23 38.88522 90.06875 41298 ft 513 kts 115°
2026-05-07 02:23 38.85858 90.15308 41309 ft 514 kts 115°
2026-05-07 02:24 38.83171 90.23787 41320 ft 513 kts 115°
2026-05-07 02:24 38.80478 90.32258 41325 ft 513 kts 115°
2026-05-07 02:25 38.77778 90.40730 41328 ft 513 kts 116°
2026-05-07 02:25 38.75087 90.49148 41330 ft 514 kts 116°
2026-05-07 02:26 38.72370 90.57622 41331 ft 515 kts 116°
2026-05-07 02:26 38.69646 90.66095 41330 ft 515 kts 116°
2026-05-07 02:27 38.66965 90.74596 41331 ft 516 kts 114°
2026-05-07 02:27 38.64574 90.83257 41316 ft 518 kts 112°
2026-05-07 02:28 38.62239 90.91906 41306 ft 518 kts 112°
2026-05-07 02:28 38.59840 91.00589 41306 ft 518 kts 113°
2026-05-07 02:29 38.57407 91.09249 41284 ft 518 kts 113°
2026-05-07 02:29 38.54960 91.17908 41292 ft 518 kts 113°
2026-05-07 02:30 38.52521 91.26511 41267 ft 519 kts 114°
2026-05-07 02:30 38.50058 91.35176 41256 ft 519 kts 114°
2026-05-07 02:31 38.47591 91.43833 41247 ft 519 kts 114°
2026-05-07 02:31 38.45118 91.52480 41249 ft 519 kts 114°
2026-05-07 02:32 38.42634 91.61136 41248 ft 520 kts 114°
2026-05-07 02:32 38.40155 91.69747 41239 ft 521 kts 114°
2026-05-07 02:33 38.37654 91.78407 41244 ft 521 kts 114°
2026-05-07 02:33 38.35144 91.87071 41233 ft 521 kts 114°
2026-05-07 02:34 38.32630 91.95722 41230 ft 521 kts 114°
2026-05-07 02:34 38.30123 92.04319 41227 ft 521 kts 115°
2026-05-07 02:35 38.27594 92.12965 41228 ft 521 kts 115°
2026-05-07 02:35 38.25060 92.21597 41222 ft 521 kts 115°
2026-05-07 02:36 38.22519 92.30229 41213 ft 521 kts 115°
2026-05-07 02:36 38.19968 92.38866 41217 ft 522 kts 115°
2026-05-07 02:37 38.17427 92.47442 41209 ft 522 kts 115°
2026-05-07 02:37 38.14726 92.55969 41206 ft 518 kts 119°
2026-05-07 02:38 38.11591 92.64160 41206 ft 515 kts 121°
2026-05-07 02:38 38.08414 92.72321 41204 ft 515 kts 121°
2026-05-07 02:39 38.05302 92.80517 41202 ft 515 kts 120°
2026-05-07 02:39 38.02246 92.88670 41202 ft 515 kts 120°
2026-05-07 02:40 37.99172 92.96874 41190 ft 515 kts 120°
2026-05-07 02:40 37.96087 93.05075 41190 ft 515 kts 120°
2026-05-07 02:41 37.92993 93.13272 41175 ft 516 kts 120°
2026-05-07 02:41 37.89909 93.21418 41172 ft 516 kts 120°
2026-05-07 02:42 37.86794 93.29622 41171 ft 517 kts 120°
2026-05-07 02:42 37.83676 93.37816 41165 ft 517 kts 120°
2026-05-07 02:43 37.80551 93.46006 41163 ft 517 kts 121°
2026-05-07 02:43 37.77420 93.54190 41152 ft 517 kts 121°
2026-05-07 02:44 37.74303 93.62315 41154 ft 517 kts 121°
2026-05-07 02:44 37.71161 93.70483 41154 ft 517 kts 121°
2026-05-07 02:45 37.68012 93.78649 41154 ft 517 kts 121°
2026-05-07 02:45 37.64861 93.86800 41132 ft 517 kts 121°
2026-05-07 02:46 37.61721 93.94898 41147 ft 517 kts 121°
2026-05-07 02:46 37.58553 94.03047 41139 ft 517 kts 121°
2026-05-07 02:47 37.55384 94.11179 41137 ft 517 kts 121°
2026-05-07 02:47 37.52209 94.19306 41137 ft 517 kts 121°
2026-05-07 02:48 37.49045 94.27380 41130 ft 518 kts 122°
2026-05-07 02:48 37.45854 94.35504 41133 ft 518 kts 122°
2026-05-07 02:49 37.42655 94.43630 41143 ft 518 kts 122°
2026-05-07 02:49 37.39451 94.51746 41146 ft 518 kts 122°
2026-05-07 02:50 37.36264 94.59798 41141 ft 517 kts 122°
2026-05-07 02:50 37.33052 94.67891 41153 ft 517 kts 122°
2026-05-07 02:51 37.29836 94.75973 41159 ft 518 kts 122°
2026-05-07 02:51 37.26613 94.84055 41159 ft 517 kts 122°
2026-05-07 02:52 37.23384 94.92129 41162 ft 517 kts 122°
2026-05-07 02:52 37.20174 95.00136 41163 ft 518 kts 122°
2026-05-07 02:53 37.16930 95.08206 41167 ft 518 kts 122°
2026-05-07 02:53 37.13677 95.16278 41168 ft 518 kts 122°
2026-05-07 02:54 37.10423 95.24333 41170 ft 518 kts 122°
2026-05-07 02:54 37.07191 95.32314 41175 ft 517 kts 122°
2026-05-07 02:55 37.03932 95.40339 41182 ft 518 kts 123°
2026-05-07 02:55 37.00661 95.48373 41186 ft 518 kts 123°
2026-05-07 02:56 36.97424 95.56436 41187 ft 519 kts 122°
2026-05-07 02:56 36.94271 95.64494 41195 ft 519 kts 122°
2026-05-07 02:57 36.91097 95.72592 41183 ft 519 kts 122°
2026-05-07 02:57 36.87898 95.80694 41195 ft 520 kts 122°
2026-05-07 02:58 36.84690 95.88781 41195 ft 520 kts 122°
2026-05-07 02:58 36.81501 95.96801 41195 ft 518 kts 122°
2026-05-07 02:59 36.78294 96.04846 41192 ft 518 kts 122°
2026-05-07 02:59 36.75094 96.12903 41192 ft 519 kts 122°